Location: Taukkyan
(23.1052°N, 94.0030°E)
Time: 08:04:56
(UTC+00:00)

Atlas Centaur 2 - Pass Details

Date: 06 July 2020
Orbit: 459 x 1310 km, 30.4° (Epoch: 05 August)

Event Time Altitude Azimuth Distance (km) Brightness Sun altitude
Rises 13:29:00 0° 277° (W) 2,959 6.4 -12.0°
Reaches altitude 10° 13:31:15 10° 285° (WNW) 2,164 5.6 -12.5°
Maximum altitude 13:36:08 43° 356° (N) 1,150 3.2 -13.4°
Drops below altitude 10° 13:42:19 10° 67° (ENE) 2,739 4.5 -14.6°
Enters shadow 13:44:25 - 71° (ENE) 3,467 5.0 -15.0°
